TimePST,TemperatureF,Dew PointF,Humidity,Sea Level PressureIn,VisibilityMPH,Wind Direction,Wind SpeedMPH,Gust SpeedMPH,PrecipitationIn,Events,Conditions,WindDirDegrees,DateUTC
12:12 AM,17.6,15.8,93,29.95,4.0,Calm,Calm,-,0.00,Snow,Light Snow,0,2013-01-29 08:12:00
12:53 AM,19.0,16.0,88,30.04,3.0,Calm,Calm,-,0.01,Snow,Light Snow,0,2013-01-29 08:53:00
1:53 AM,19.0,16.0,88,30.03,6.0,Calm,Calm,-,0.00,Snow,Light Snow,0,2013-01-29 09:53:00
2:09 AM,19.4,15.8,86,29.93,7.0,ENE,3.5,-,0.00,Snow,Light Snow,70,2013-01-29 10:09:00
2:49 AM,19.4,15.8,86,29.92,3.0,Calm,Calm,-,0.00,Snow,Light Snow,0,2013-01-29 10:49:00
2:53 AM,19.0,16.0,88,30.01,3.0,Calm,Calm,-,0.00,Snow,Light Snow,0,2013-01-29 10:53:00
3:13 AM,19.4,15.8,86,29.91,4.0,North,-9999.0,-,0.00,Snow,Light Snow,0,2013-01-29 11:13:00
3:53 AM,19.0,17.1,92,30.01,7.0,Calm,Calm,-,0.00,Snow,Light Snow,0,2013-01-29 11:53:00
4:09 AM,19.4,17.6,93,29.90,3.0,Calm,Calm,-,0.00,Snow,Light Snow,0,2013-01-29 12:09:00
4:26 AM,19.4,17.6,93,29.91,2.5,Calm,Calm,-,0.00,Snow,Light Snow,0,2013-01-29 12:26:00
4:53 AM,19.9,17.1,89,30.01,2.0,East,3.5,-,0.00,Snow,Light Snow,90,2013-01-29 12:53:00
5:22 AM,19.4,17.6,93,29.90,3.0,ENE,4.6,-,0.01,Snow,Light Snow,70,2013-01-29 13:22:00
5:53 AM,21.0,17.1,85,30.00,4.0,Calm,Calm,-,0.01,Snow,Light Snow,0,2013-01-29 13:53:00
6:07 AM,21.2,17.6,86,29.90,2.5,East,3.5,-,0.00,Snow,Light Snow,80,2013-01-29 14:07:00
6:26 AM,21.2,17.6,86,29.91,1.8,ENE,5.8,-,0.01,Snow,Light Snow,70,2013-01-29 14:26:00
6:53 AM,21.9,18.0,85,30.02,1.0,Calm,Calm,-,0.02,Snow,Light Snow,0,2013-01-29 14:53:00
7:28 AM,21.2,17.6,86,29.92,0.8,Calm,Calm,-,0.01,Snow,Light Snow,0,2013-01-29 15:28:00
7:38 AM,21.2,19.4,93,29.92,0.8,ENE,4.6,-,0.01,Snow,Light Snow,60,2013-01-29 15:38:00
7:53 AM,23.0,19.0,85,30.02,0.5,Variable,3.5,-,0.02,Fog-Snow,Snow,0,2013-01-29 15:53:00
8:19 AM,23.0,19.4,86,29.93,1.0,Calm,Calm,-,0.01,Snow,Light Snow,0,2013-01-29 16:19:00
8:43 AM,24.8,19.4,80,29.93,1.0,Calm,Calm,-,0.02,Snow,Light Snow,0,2013-01-29 16:43:00
8:53 AM,24.1,21.0,88,30.03,1.0,Calm,Calm,-,0.02,Snow,Light Snow,0,2013-01-29 16:53:00
9:42 AM,26.6,23.0,86,29.95,2.0,NNW,6.9,-,0.01,Snow,Light Snow,340,2013-01-29 17:42:00
9:51 AM,26.6,23.0,86,29.95,2.5,North,6.9,-,0.01,Snow,Light Snow,350,2013-01-29 17:51:00
9:53 AM,27.0,23.0,85,30.04,2.5,Variable,5.8,-,0.01,Snow,Light Snow,0,2013-01-29 17:53:00
10:04 AM,26.6,24.8,93,29.96,1.8,North,6.9,-,0.00,Snow,Light Snow,350,2013-01-29 18:04:00
10:15 AM,26.6,24.8,93,29.96,1.0,North,5.8,-,0.00,Snow,Light Snow,10,2013-01-29 18:15:00
10:35 AM,26.6,24.8,93,29.97,1.5,North,6.9,-,0.01,Snow,Light Snow,350,2013-01-29 18:35:00
10:49 AM,28.4,24.8,86,29.96,2.5,NNE,4.6,-,0.01,Snow,Light Snow,20,2013-01-29 18:49:00
10:53 AM,28.0,24.1,85,30.04,2.0,NNE,4.6,-,0.01,Snow,Light Snow,20,2013-01-29 18:53:00
10:59 AM,28.4,24.8,86,29.96,1.2,North,5.8,-,0.00,Snow,Light Snow,360,2013-01-29 18:59:00
11:08 AM,28.4,24.8,86,29.97,2.0,North,9.2,-,0.00,Snow,Light Snow,350,2013-01-29 19:08:00
11:17 AM,28.4,24.8,86,29.97,6.0,North,10.4,-,0.00,Snow,Light Snow,350,2013-01-29 19:17:00
11:25 AM,28.4,21.2,74,29.98,2.5,NNW,17.3,24.2,0.00,Snow,Light Snow,340,2013-01-29 19:25:00
11:31 AM,28.4,23.0,80,29.98,1.8,North,10.4,24.2,0.00,Snow,Light Snow,350,2013-01-29 19:31:00
11:45 AM,28.4,23.0,80,29.98,1.5,NNW,12.7,-,0.01,Snow,Light Snow,340,2013-01-29 19:45:00
11:53 AM,28.0,24.1,85,30.06,1.5,NW,12.7,-,0.01,Snow,Light Snow,320,2013-01-29 19:53:00
12:00 PM,28.4,24.8,86,29.98,1.0,NW,12.7,-,0.00,Snow,Light Snow,320,2013-01-29 20:00:00
12:08 PM,28.4,24.8,86,29.98,2.0,NW,13.8,-,0.00,Snow,Light Snow,320,2013-01-29 20:08:00
12:21 PM,28.4,23.0,80,29.98,4.0,NW,15.0,-,0.00,Snow,Light Snow,320,2013-01-29 20:21:00
12:53 PM,28.9,23.0,78,30.07,6.0,NNW,18.4,25.3,0.00,Snow,Light Snow,330,2013-01-29 20:53:00
1:53 PM,30.9,21.9,69,30.08,4.0,NNW,23.0,32.2,0.01,Snow,Light Snow,330,2013-01-29 21:53:00
2:19 PM,30.2,21.2,69,30.04,2.5,NW,18.4,26.5,0.00,Snow,Light Snow,320,2013-01-29 22:19:00
2:30 PM,30.2,21.2,69,30.04,4.0,NW,19.6,28.8,0.00,Snow,Light Snow,320,2013-01-29 22:30:00
2:53 PM,28.9,21.0,72,30.13,3.0,NW,20.7,32.2,0.00,Snow,Light Snow,320,2013-01-29 22:53:00
3:19 PM,28.4,21.2,74,30.07,2.0,NW,17.3,-,0.00,Snow,Light Snow,310,2013-01-29 23:19:00
3:32 PM,28.4,23.0,80,30.07,1.8,NW,17.3,-,0.00,Snow,Light Snow,310,2013-01-29 23:32:00
3:39 PM,28.4,23.0,80,30.08,2.0,NW,13.8,-,0.00,Snow,Light Snow,310,2013-01-29 23:39:00
3:44 PM,28.4,24.8,86,30.09,1.8,NW,11.5,-,0.00,Snow,Light Snow,310,2013-01-29 23:44:00
3:53 PM,28.0,23.0,81,30.18,2.0,NW,13.8,-,0.00,Snow,Light Snow,320,2013-01-29 23:53:00
4:03 PM,28.4,23.0,80,30.10,1.5,NNW,12.7,-,0.00,Snow,Light Snow,330,2013-01-30 00:03:00
4:08 PM,28.4,23.0,80,30.10,3.0,NNW,9.2,-,0.00,Snow,Light Snow,340,2013-01-30 00:08:00
4:48 PM,28.4,21.2,74,30.11,7.0,NNW,10.4,-,0.01,Snow,Light Snow,330,2013-01-30 00:48:00
4:53 PM,28.0,19.9,72,30.19,8.0,NNW,10.4,-,0.01,Snow,Light Snow,340,2013-01-30 00:53:00
5:53 PM,26.1,16.0,66,30.23,10.0,NW,8.1,18.4,0.00,,Scattered Clouds,320,2013-01-30 01:53:00
6:53 PM,25.0,16.0,69,30.27,10.0,WNW,8.1,-,N/A,,Mostly Cloudy,300,2013-01-30 02:53:00
7:53 PM,24.1,17.1,75,30.28,10.0,NW,9.2,-,N/A,,Overcast,310,2013-01-30 03:53:00
8:53 PM,24.1,16.0,71,30.31,10.0,NW,10.4,-,N/A,,Overcast,320,2013-01-30 04:53:00
9:53 PM,25.0,18.0,75,30.30,10.0,NW,8.1,-,N/A,,Overcast,320,2013-01-30 05:53:00
10:53 PM,21.0,15.1,78,30.31,10.0,NW,4.6,-,N/A,,Mostly Cloudy,310,2013-01-30 06:53:00
11:53 PM,16.0,12.0,84,30.35,10.0,North,8.1,-,N/A,,Clear,350,2013-01-30 07:53:00